EHI
6 6 6 5 4 3 3 3 2 1 0 0 0 0 0 0 0 0 0 0 0 0 0 0 0 0 0 0 0 0 0 0 0 0 0 0 0 0 0 0 0 0 0
6 6 4 3 3 3 3 3 2 1 0 0 0 0 0 0 0 0 0 0 0 0 0 0 0 0 0 0 0 0 0 0 0 0 0 0 0 0 0 0 0 0 0
5 5 3 2 3 3 3 2 1 0 0 0 0 0 0 0 0 0 0 0 0 0 0 0 0 0 0 0 0 0 0 0 0 0 0 0 0 0 0 0 0 0 0
4 3 2 1 2 2 1 1 0 0 0 0 0 0 0 0 0 0 0 0 0 0 0 0 0 0 0 0 0 0 0 0 0 0 0 0 0 0 0 0 0 0 0
3 2 1 0 1 1 1 0 0 0 0 0 0 0 0 0 0 0 0 0 0 0 0 0 0 0 0 0 0 0 0 0 0 0 0 0 0 0 0 0 0 0 0
2 1 0 0 0 0 0 0 0 0 0 0 0 0 0 0 0 0 0 0 0 0 0 0 0 0 0 0 0 0 0 0 0 0 0 0 0 0 0 0 0 0 0
2 1 0 0 0 0 0 0 0 0 0 0 0 0 0 0 0 0 0 0 0 0 0 0 0 0 0 0 0 0 0 0 0 0 0 0 0 0 0 0 0 0 0
1 0 0 0 0 0 0 0 0 0 0 0 0 0 0 0 0 0 0 0 0 0 0 0 0 0 0 0 0 0 0 0 0 0 0 0 0 0 0 0 0 0 0
0 0 0 0 0 0 0 0 0 0 0 0 0 0 0 0 0 0 0 0 0 0 0 0 0 0 0 0 0 0 0 0 0 0 0 0 0 0 0 0 0 0 0
0 0 0 0 0 0 0 0 0 0 0 0 0 0 0 0 0 0 0 0 0 0 0 0 0 0 0 0 0 0 0 0 0 0 0 0 0 0 0 0 0 0 0
0 0 0 0 0 0 0 0 0 0 0 0 0 0 0 0 0 0 0 0 0 0 0 0 0 0 0 0 0 0 0 0 0 0 0 0 0 0 0 0 0 0 0
0 0 0 0 0 0 0 0 0 0 0 0 0 0 0 0 0 0 0 0 0 0 0 0 0 0 0 0 0 0 0 0 0 0 0 0 0 0 0 0 0 0 0
0 0 0 0 0 0 0 0 0 0 0 0 0 0 0 0 0 0 0 0 0 0 0 0 0 0 0 0 0 0 0 0 0 0 0 0 0 0 0 0 0 0 0
0 0 0 0 0 0 0 0 0 0 0 0 0 0 0 0 0 0 0 0 0 0 0 0 0 0 0 0 0 0 0 0 0 0 0 0 0 0 0 0 0 0 0
0 0 0 0 0 0 0 0 0 0 0 0 0 0 0 0 0 0 0 0 0 0 0 0 0 0 0 0 0 0 0 0 0 0 0 0 0 0 0 0 0 0 0
0 0 0 0 0 0 0 0 0 0 0 0 0 0 0 0 0 0 0 0 0 0 0 0 0 0 0 0 0 0 0 0 0 0 0 0 0 0 0 0 0 0 0
0 0 0 0 0 0 0 0 0 0 0 0 0 0 0 0 0 0 0 0 0 0 0 0 0 0 0 0 0 0 0 0 0 0 0 0 0 0 0 0 0 0 0
0 0 0 0 0 0 0 0 0 0 0 0 0 0 0 0 0 0 0 0 0 0 0 0 0 0 0 0 0 0 0 0 0 0 0 0 0 0 0 0 0 0 0
0 0 0 0 0 0 0 0 0 0 0 0 0 0 0 0 0 0 0 0 0 0 0 0 0 0 0 0 0 0 0 0 0 0 0 0 0 0 0 0 0 0 0
0 0 0 0 0 0 0 0 0 0 0 0 0 0 0 0 0 0 0 0 0 0 0 0 0 0 0 0 0 0 0 0 0 0 0 0 0 0 0 0 0 0 0
0 0 0 0 0 0 0 0 0 0 0 0 0 0 0 0 0 0 0 0 0 0 0 0 0 0 0 0 0 0 0 0 0 0 0 0 0 0 0 0 0 0 0
0 0 0 0 0 0 0 0 0 0 0 0 0 0 0 0 0 0 0 0 0 0 0 0 0 0 0 0 0 0 0 0 0 0 0 0 0 0 0 0 0 0 0
0 0 0 0 0 0 0 0 0 0 0 0 0 0 0 0 0 0 0 0 0 0 0 0 0 0 0 0 0 0 0 0 0 0 0 0 0 0 0 0 0 0 0
0 0 0 0 0 0 0 0 0 0 0 0 0 0 0 0 0 0 0 0 0 0 0 0 0 0 0 0 0 0 0 0 0 0 0 0 0 0 0 0 0 0 0
0 0 0 0 0 0 0 0 0 0 0 0 0 0 0 0 0 0 0 0 0 0 0 0 0 0 0 0 0 0 0 0 0 0 0 0 0 0 0 0 0 0 0
0 0 0 0 0 0 0 0 0 0 0 0 0 0 0 0 0 0 0 0 0 0 0 0 0 0 0 0 0 0 0 0 0 0 0 0 0 0 0 0 0 0 0
Wind_Speed
0 0 0 0 0 1 1 1 1 2 1 1 1 2 2 2 2 1 0 2 2 2 2 2 3 3 3 4 5 5 6 6 7 6 7 7 7 8 8 8 8 8 8
1 1 1 0 0 1 1 2 2 2 1 1 1 1 2 1 2 2 1 1 2 2 2 2 3 4 4 4 5 5 5 6 6 7 7 7 7 8 8 8 8 8 8
1 1 1 1 0 0 1 1 2 2 1 1 1 1 1 1 2 2 2 1 0 1 2 2 3 4 4 5 5 5 5 5 6 7 7 7 8 8 8 8 8 8 8
1 1 1 1 1 1 1 1 2 2 1 1 0 0 1 1 2 2 2 1 1 0 1 3 4 4 5 5 6 6 6 6 6 7 8 8 8 8 9 9 9 9 9
1 1 1 1 1 1 1 1 1 2 1 1 1 1 1 1 1 2 2 1 1 0 0 2 3 4 5 6 6 6 6 6 7 7 8 8 8 9 9 9 9 9 9
1 1 1 1 2 1 1 1 1 1 1 1 0 0 0 1 1 1 1 1 0 0 1 1 1 2 4 5 7 7 7 7 8 8 8 8 9 9 9 9 9 9 9
1 1 1 1 2 1 1 1 1 1 1 1 2 1 1 1 1 1 1 1 0 0 0 1 1 1 2 5 6 8 9 9 8 8 8 8 8 9 9 9 9 9 9
1 1 1 1 1 1 1 1 1 1 1 1 2 2 1 2 1 0 0 1 1 0 0 1 1 1 1 1 5 8 9 9 9 9 9 9 9 9 9 9 9 9 9
1 1 0 1 1 1 1 0 1 1 1 0 1 2 2 2 1 1 1 1 1 0 1 1 1 1 1 1 2 6 9 9 9 9 9 9 9 9 9 9 9 10 10
2 1 1 1 1 1 1 0 0 0 2 1 0 0 1 2 1 1 2 1 1 1 2 2 1 1 1 1 3 7 9 9 10 10 10 9 9 9 10 9 9 10 10
2 2 1 1 1 1 1 1 1 1 0 1 1 0 1 1 1 1 2 2 2 2 2 2 1 1 1 2 2 5 8 9 10 10 10 10 10 10 10 10 10 10 10
2 2 2 2 2 1 1 1 1 1 1 0 0 0 1 1 1 1 1 2 2 2 2 1 1 1 1 2 4 8 8 8 9 10 10 10 10 10 10 10 10 10 10
1 1 2 1 1 1 1 1 1 1 1 1 0 0 0 0 1 1 1 1 2 2 2 1 2 1 1 2 3 7 7 8 9 9 9 10 10 9 9 9 10 10 10
1 1 1 1 1 1 1 1 0 0 0 0 0 0 0 0 1 1 1 1 1 2 2 2 2 1 2 2 4 7 5 8 8 8 9 9 9 9 9 9 9 9 9
1 1 1 1 1 1 1 1 0 0 0 0 0 0 0 1 0 0 0 1 1 2 3 2 2 2 2 2 5 3 4 7 8 8 8 9 9 9 8 8 8 8 9
1 1 1 1 1 1 1 1 0 0 0 0 0 0 0 0 0 0 0 0 1 1 3 3 3 3 3 4 6 4 4 9 8 9 9 8 8 8 8 8 8 8 9
0 1 1 1 1 1 0 0 0 1 0 0 0 0 0 1 0 0 0 0 1 1 3 4 2 2 3 4 4 4 4 4 4 9 9 8 8 8 7 8 8 8 9
0 1 1 1 1 1 0 0 0 0 0 1 1 0 1 1 1 1 1 1 1 1 2 4 3 3 3 4 4 5 4 4 4 8 9 8 8 8 8 8 8 8 8
0 0 1 1 1 1 0 1 0 1 1 1 1 1 1 1 1 1 1 1 1 1 1 2 4 3 3 3 4 4 5 4 5 6 7 8 8 9 9 8 7 7 7
0 0 1 1 1 1 1 1 0 0 1 1 1 1 1 1 1 2 1 1 1 1 1 2 3 3 3 3 3 4 5 4 5 4 5 7 8 8 8 8 8 7 7
0 0 1 1 1 1 1 1 0 0 0 1 2 2 1 1 2 2 2 1 1 1 1 2 2 3 3 3 3 4 5 5 5 2 3 4 4 4 4 7 7 7 7
1 1 1 1 1 2 2 1 1 0 0 1 2 2 2 1 2 3 4 3 2 2 2 2 2 3 4 4 4 4 4 5 5 3 4 6 3 4 4 3 6 8 7
0 1 1 1 1 2 3 2 1 0 0 1 2 2 2 2 2 2 3 4 4 4 4 2 3 4 4 4 4 4 4 5 5 5 4 5 4 5 4 5 8 7 7
1 1 1 1 1 2 3 3 2 1 0 1 2 2 2 2 2 2 1 2 2 3 4 2 3 4 4 4 4 4 4 5 5 4 2 4 4 4 5 5 7 6 6
1 1 1 1 1 2 3 3 2 1 1 1 2 2 2 2 4 4 2 2 3 3 4 5 6 6 7 7 6 3 3 3 4 4 2 2 3 4 4 4 5 6 7
1 1 1 0 1 1 3 2 2 0 1 1 2 2 3 4 5 5 2 2 3 3 3 3 4 5 4 5 6 3 3 3 3 3 2 2 3 3 4 3 3 3 4
Wind_Direction
103 107 105 66 90 79 113 113 116 111 106 89 110 123 128 128 138 136 129 92 71 53 45 32 18 13 12 14 6 5 5 3 358 349 343 339 337 333 332 330 330 326 322
110 124 118 74 48 97 111 139 131 124 130 104 90 125 139 135 137 141 136 110 73 61 41 24 2 354 0 3 358 359 358 358 356 352 346 342 337 334 334 333 329 327 325
96 106 115 87 15 105 101 112 109 101 95 80 71 133 141 144 147 149 144 131 79 34 21 8 352 349 353 354 353 352 350 350 350 348 347 340 335 333 332 331 329 327 325
92 99 106 84 25 54 91 110 127 123 113 97 131 181 141 142 154 151 140 130 116 39 355 4 353 350 350 349 348 348 351 345 343 341 338 333 329 329 328 327 325 321 319
69 83 124 120 82 61 79 120 129 145 144 125 193 173 153 158 169 140 136 133 125 90 34 349 352 350 348 345 342 342 342 338 334 331 329 327 326 326 325 324 321 320 319
76 68 122 114 103 88 48 71 104 122 151 166 136 76 122 161 148 140 154 138 115 82 50 8 351 334 344 345 341 339 337 334 331 327 323 322 321 321 321 321 320 320 320
65 61 70 126 116 118 109 100 120 132 100 114 96 44 355 34 125 160 172 166 147 45 46 16 354 348 335 345 342 336 331 330 328 326 323 320 317 318 316 316 317 318 317
36 68 75 96 122 114 100 75 105 123 103 105 126 126 354 337 336 294 228 209 227 288 326 319 313 350 342 337 335 335 328 327 324 322 322 321 318 316 314 312 313 314 314
21 17 70 74 112 122 134 119 138 137 155 172 117 137 151 215 301 300 244 232 264 281 287 280 283 314 326 322 320 323 329 329 325 321 320 319 318 317 316 314 313 312 311
28 17 40 54 83 96 111 142 54 162 149 175 184 84 140 149 157 292 303 280 267 260 266 279 275 272 290 298 313 325 330 331 327 325 322 319 318 319 319 316 315 315 315
13 16 33 51 55 62 83 66 32 24 130 175 163 142 87 77 125 173 268 300 303 267 252 260 264 266 288 294 296 316 329 332 328 326 324 321 319 317 316 315 314 313 314
5 9 21 45 45 38 45 59 51 39 13 25 57 97 145 151 177 170 236 278 291 287 282 279 264 261 275 287 305 324 328 329 327 326 324 322 319 318 316 315 314 312 314
348 348 6 28 47 36 35 50 65 40 22 30 87 48 38 181 162 149 168 277 294 297 297 280 258 263 296 297 302 320 322 325 325 326 326 326 324 323 321 319 317 316 318
298 321 355 16 19 33 55 52 55 206 108 38 21 67 8 280 118 138 168 194 294 294 282 278 285 271 303 299 306 322 310 321 323 326 329 329 328 327 326 323 323 322 323
335 359 2 28 10 14 70 104 21 312 184 183 196 195 355 325 99 157 148 175 188 265 277 277 297 298 305 308 316 307 304 315 322 325 324 323 321 322 322 322 324 324 324
346 359 358 12 6 3 30 68 10 333 26 311 245 136 29 348 46 6 210 243 211 221 265 272 271 293 309 313 323 315 299 321 320 318 318 316 317 320 321 321 320 322 324
332 357 337 352 353 343 343 51 346 1 9 321 338 180 292 347 312 290 289 262 268 241 262 284 281 299 304 306 312 311 304 301 303 315 315 318 320 320 320 319 319 320 318
320 324 330 339 330 332 314 204 289 311 292 279 270 281 299 327 328 278 254 256 260 270 262 289 300 304 303 302 310 315 317 315 308 314 319 319 321 321 320 318 316 317 319
172 333 354 292 286 292 276 291 285 280 283 286 257 241 274 261 277 279 265 255 267 291 287 284 298 303 309 322 324 319 319 311 315 318 321 320 318 320 321 318 314 313 314
138 18 329 293 296 296 257 249 220 312 299 307 289 243 245 242 249 266 261 262 282 301 298 291 302 312 317 321 319 323 323 322 317 316 317 318 318 321 320 316 313 311 311
355 315 310 306 304 290 240 222 204 323 279 291 303 284 262 275 290 297 300 281 270 274 293 299 305 315 316 321 318 319 314 316 306 305 313 311 309 306 307 309 310 314 318
320 310 295 289 299 301 304 309 4 236 258 263 286 297 287 291 309 321 323 322 310 276 274 287 294 297 302 310 312 314 315 320 312 314 318 306 303 296 295 288 308 315 318
268 282 286 276 286 298 315 315 323 7 259 263 268 281 294 310 315 295 319 327 321 316 298 276 275 282 287 291 300 303 305 306 294 299 308 294 294 287 287 295 307 311 316
249 260 278 255 278 303 321 327 340 29 313 279 285 274 272 293 299 303 291 303 290 286 289 283 261 270 281 285 280 285 293 301 294 288 285 285 293 286 294 287 294 304 318
261 265 278 236 254 292 312 329 7 35 325 306 309 300 292 280 300 307 291 291 298 295 303 312 311 307 307 304 304 302 301 310 307 299 293 279 290 301 289 274 282 297 311
266 287 303 265 240 273 305 335 2 29 321 320 318 311 296 299 303 313 280 267 284 289 302 315 320 319 308 299 305 286 272 286 302 293 285 296 287 309 301 278 273 286 295